Skip Page Navigation
NASA JPL Caltech
NASA Logo - Jet Propulsion Laboratory + View the NASA Portal
+ Center for Near-Earth Object Studies
JPL Home Earth Solar System Stars & Galaxies Technology
JPL Solar System Dynamics
BODIES ORBITS EPHEMERIDES TOOLS PHYSICAL DATA DISCOVERY FAQ SITE MAP
JPL Small-Body Database Browser
Search: [ help ]  
312066 (2007 TP12)
Classification: Main-belt Asteroid          SPK-ID: 2312066
Ephemeris | Orbit Diagram | Orbital Elements | Mission Design | Physical Parameters | Discovery Circumstances | Close-Approach Data ]

[ show orbit diagram ]
Orbital Elements at Epoch 2459396.5 (2021-Jul-01.0) TDB
Reference: JPL 23 (heliocentric ecliptic J2000)
 Element Value Uncertainty (1-sigma)   Units 
e .2024261425270771 3.6618e-08  
a 2.370356790566244 1.0433e-08 au
q 1.890534609039057 8.6223e-08 au
i 2.405340950017324 3.7917e-06 deg
node 64.56533959300438 0.00010621 deg
peri 306.5516200541401 0.00010683 deg
M 284.5037032410954 1.0593e-05 deg
tp 2459676.038839512614
(2022-Apr-06.53883951)
4.001e-05 TDB
period 1332.965808189412
3.65
8.8005e-06
2.409e-08
d
yr
n .2700744443617751 1.7831e-09 deg/d
Q 2.850178972093432 1.2545e-08 au
  Orbit Determination Parameters
   # obs. used (total)      510  
   data-arc span      7102 days (19.44 yr)  
   first obs. used      2000-12-05  
   last obs. used      2020-05-16  
   planetary ephem.      DE441  
   SB-pert. ephem.      SB441-N16  
   condition code      0  
   norm. resid. RMS      .50158  
   source      ORB  
   producer      Otto Matic  
   solution date      2021-Apr-14 06:28:31  

Additional Information
 Earth MOID = .89092 au 
 Jupiter MOID = 2.61491 au 
 T_jup = 3.516 
[ show covariance matrix ]

Ephemeris | Orbit Diagram | Orbital Elements | Mission Design | Physical Parameters | Discovery Circumstances | Close-Approach Data ]

Physical Parameter Table
Parameter Symbol Value Units Sigma Reference Notes
absolute magnitude H 16.63   n/a E2021B25  

312066 (2007 TP12)          Discovered 2007-Oct-06 by LINEAR at Socorro
Reference: 20120109/Numbers.arcLast Updated: 2012-01-11

[ show close-approach data ]
Alternate Designations
 2007 TP12 = 2005 CG14 
Ephemeris | Orbit Diagram | Orbital Elements | Mission Design | Physical Parameters | Discovery Circumstances | Close-Approach Data ]
ABOUT SSD CREDITS/AWARDS PRIVACY/COPYRIGHT GLOSSARY LINKS
FirstGov 2021-Jul-25 07:51 UT
(server date/time)  
NASA Home Page
Site Manager:   Ryan S. Park
Webmaster  Alan B. Chamberlin